Terminal Aerodrome Forecast
Issued by NWS Jacksonville, FL

Home | Current Version | Previous Version | Text Only | Print | Product List | Glossary On
Versions: 1 2 3 4 5 6 7 8 9 10 11 12 13 14 15 16 17 18 19
809
FTUS42 KJAX 180837 AAB
TAFGNV
TAF AMD
KGNV 180837Z 1809/1906 00000KT 4SM BR SCT002
      TEMPO 1809/1811 3/4SM BR VV002
     FM181300 16002KT P6SM SKC
     FM181500 19007KT P6SM SCT250
     FM182200 23005KT P6SM FEW250=

USA.gov is the U.S. government's official web portal to all federal, state and local government web resources and services.